This demonstration page uses our WeatherBlox Daily Observations layout. Learn more.

Left ArrowRight Arrow

Hourly Observations for May 21, 2019

Temp ( °F °C ) Dew Point ( °F °C ) Humidity (%) Winds ( mph kmh ) Pressure ( in mb ) Visibility ( mi km ) Precip ( " mm )
12:52 am 00:52 Cloudy 51 10.6 43 6.1 74 74 E 15 24 29.91 1013 10 16 0.00 0.03
1:52 am 01:52 Cloudy with Light Rain 50 10 45 7.2 83 83 E 12 19 29.92 1013 6 10 0.01 0.25
2:21 am 02:21 Cloudy with Light Rain 49 9.4 46 7.8 90 90 E 15 24 29.90 1013 5 8 0.01 0.25
2:52 am 02:52 Cloudy with Rain 49 9.4 46 7.8 90 90 E 13 20 29.89 1012 3 5 0.04 1.02
3:06 am 03:06 Cloudy with Light Rain 49 9.4 46 7.8 90 90 E 15 24 29.90 1013 5 8 0.01 0.25
3:52 am 03:52 Cloudy with Light Rain 49 9.4 46 7.8 90 90 E 16 26 29.86 1011 4 6 0.03 0.76
4:52 am 04:52 Cloudy 50 10 46 7.8 86 86 E 20 31 29.85 1011 10 16 0.00 0.03
5:52 am 05:52 Cloudy 50 10 46 7.8 86 86 E 12 19 29.83 1010 10 16 0.00 0.00
6:52 am 06:52 Cloudy 50 10 46 7.8 86 86 E 13 20 29.82 1010 10 16 0.00 0.03
8:52 am 08:52 Cloudy 50 10 46 7.8 86 86 ESE 21 33 29.83 1010 10 16 0.00 0.03
9:40 am 09:40 Cloudy with Light Rain 50 10 46 7.8 86 86 E 16 26 29.78 1009 2 3 0.00 0.03
9:52 am 09:52 Cloudy with Light Rain 49 9.4 46 7.8 90 90 E 21 33 29.77 1008 2 3 0.00 0.03
10:52 am 10:52 Cloudy with Light Rain 49 9.4 46 7.8 90 90 ESE 18 30 29.75 1007 2 3 0.02 0.51
11:12 am 11:12 Cloudy with Light Rain 49 9.4 45 7.2 86 86 ESE 14 22 29.75 1008 7 11 0.02 0.51
11:52 am 11:52 Cloudy with Rain 49 9.4 45 7.2 86 86 E 16 26 29.71 1006 3 5 0.08 2.03
1:52 pm 13:52 Cloudy 51 10.6 46 7.8 83 83 E 21 33 29.60 1002 10 16 0.00 0.03
2:52 pm 14:52 Cloudy 52 11.1 46 7.8 80 80 E 24 39 29.55 1001 10 16 0.00 0.00
3:28 pm 15:28 Cloudy 52 11.1 46 7.8 80 80 E 24 39 29.54 1000 10 16 0.00 0.00
3:52 pm 15:52 Cloudy 52 11.1 47 8.3 83 83 ESE 25 41 29.52 1000 9 14 0.00 0.00
4:23 pm 16:23 Cloudy with Drizzle 51 10.6 47 8.3 86 86 E 20 31 29.51 999 2 3 0.00 0.03
4:41 pm 16:41 Cloudy with Drizzle 51 10.6 48 8.9 89 89 ESE 20 31 29.49 999 4 6 0.00 0.03
4:47 pm 16:47 Cloudy with Drizzle 52 11 46 8 82 82 E 18 30 29.48 998 4 6 0.00 0.03
4:52 pm 16:52 Cloudy with Drizzle 51 10.6 48 8.9 89 89 E 15 24 29.46 998 5 8 0.00 0.03
5:14 pm 17:14 Cloudy with Light Rain 51 10.6 48 8.9 89 89 E 16 26 29.45 997 3 4 0.00 0.03
5:19 pm 17:19 Cloudy with Light Rain 51 10.6 48 8.9 89 89 E 17 28 29.45 997 2 3 0.01 0.25
5:30 pm 17:30 Cloudy with Light Rain 51 10.6 48 8.9 89 89 ESE 16 26 29.44 997 3 4 0.02 0.51
5:52 pm 17:52 Cloudy with Heavy Rain 52 11.1 49 9.4 89 89 ESE 20 31 29.42 996 2 3 0.07 1.78
6:00 pm 18:00 Cloudy with Light Rain 52 11.1 49 9.4 89 89 ESE 18 30 29.42 996 3 5 0.00 0.03
6:11 pm 18:11 Cloudy with Light Rain 52 11.1 50 10 93 93 E 23 37 29.41 996 3 4 0.01 0.25
6:24 pm 18:24 Cloudy with Rain 52 11.1 50 10 93 93 E 22 35 29.40 995 2 2 0.03 0.76
6:39 pm 18:39 Cloudy with Rain 53 11.7 50 10 89 89 ESE 16 26 29.38 995 4 6 0.09 2.29
6:52 pm 18:52 Cloudy with Light Rain 54 12.2 51 10.6 90 90 ESE 14 22 29.37 995 6 10 0.10 2.54
7:10 pm 19:10 Cloudy with Light Rain 55 12.8 53 11.7 93 93 SE 17 28 29.38 995 3 5 0.01 0.25
7:18 pm 19:18 Cloudy with Rain 55 12.8 53 11.7 93 93 SE 13 20 29.38 995 2 3 0.02 0.51
7:34 pm 19:34 Cloudy with Rain 56 13.3 54 12.2 93 93 S 12 19 29.39 995 3 5 0.12 3.05
7:52 pm 19:52 Cloudy with Mist and Fog 56 13.3 54 12.2 93 93 SE 10 17 29.38 995 6 10 0.13 3.30
8:15 pm 20:15 Mostly Cloudy 57 13.9 54 12.2 90 90 SE 13 20 29.37 994 7 11 0.00 0.03
8:25 pm 20:25 Mostly Cloudy with Thunderstorms 57 13.9 55 12.8 93 93 SSE 12 19 29.39 995 7 11 0.01 0.25
8:34 pm 20:34 Cloudy with Thunderstorms 58 14.4 55 12.8 90 90 S 29 46 29.39 995 2 3 0.02 0.51
8:40 pm 20:40 Windy with Storms Likely 57 13.9 52 11.1 83 83 S 21 33 29.40 995 3 5 0.10 2.54
8:52 pm 20:52 Cloudy with Thunderstorms 57 13.9 52 11.1 83 83 SE 16 26 29.40 996 5 8 0.13 3.30
9:29 pm 21:29 Cloudy with Nearby Thunderstorms 55 12.8 51 10.6 87 87 ESE 16 26 29.39 995 7 11 0.05 1.27
9:52 pm 21:52 Mostly Cloudy 54 12.2 51 10.6 90 90 E 12 19 29.39 995 10 16 0.05 1.27
10:52 pm 22:52 Cloudy with Light Rain 55 12.8 51 10.6 87 87 SE 14 22 29.39 995 4 6 0.01 0.25
11:00 pm 23:00 Cloudy with Thunderstorms 56 13.3 52 11.1 87 87 SE 18 30 29.39 995 4 6 0.03 0.76
11:20 pm 23:20 Cloudy with Thunderstorms 55 12.8 51 10.6 87 87 SE 20 31 29.40 996 3 4 0.12 3.05
11:30 pm 23:30 Cloudy with Thunderstorms 54 12.2 50 10 87 87 SE 17 28 29.40 996 4 6 0.15 3.81
11:52 pm 23:52 Cloudy with Thunderstorms 55 12.8 51 10.6 87 87 SE 14 22 29.36 994 6 10 0.18 4.57

Powered by AerisWeather